Regional Weather Roundup
Issued by NWS State College, PA

Home | Current Version | Previous Version | Graphics & Text | Print | Product List | Glossary Off
Versions: 1 2 3 4 5 6 7 8 9 10 11 12 13 14 15 16 17 18 19 20 21 22 23 24 25 26 27 28 29 30 31 32 33 34 35 36 37 38 39 40 41 42 43 44 45 46 47 48 49 50

000
ASUS41 KCTP 250210
RWRCTP

REGIONAL WEATHER ROUNDUP
NATIONAL WEATHER SERVICE STATE COLLEGE PA
900 PM EST FRI FEB 24 2017

Note: "fair" indicates few or no clouds below 12,000 feet with no
significant weather and/or obstructions to visibility.

* = STATION THAT DOES NOT REPORT PRECIPITATION /E.G. RAIN...SNOW...ETC/
    THUNDER OR FOG.

PAZ002>004-007>009-013>016-020>023-029>032-250300-
WESTERN PENNSYLVANIA

CITY           SKY/WX    TMP DP  RH WIND       PRES   REMARKS
ERIE           CLOUDY    68  49  50 S8        29.54F
MEADVILLE      CLOUDY    63  47  55 SE3       29.59F
FRANKLIN*      CLOUDY    59  45  58 SE9       29.63F
NEW CASTLE     FAIR      60  48  64 CALM      29.60F
BEAVER COUNTY  CLEAR     68  46  45 SE5       29.60F
BUTLER*        CLEAR     57  46  67 CALM      29.62F
PITTSBURGH INT MOCLDY    61  47  59 SE3       29.60F
PITTSBURGH     CLOUDY    67  44  43 SE7       29.61S
INDIANA*       CLEAR     68  50  52 S9G24     29.67F
LATROBE        CLEAR     68  48  49 S15G26    29.64S
WASHINGTON CO* PTCLDY    54  45  71 CALM      29.63S
$$

PAZ004>006-010>012-017>019-024>028-033>037-041-042-045-046-049>053-250300-
CENTRAL PENNSYLVANIA

CITY           SKY/WX    TMP DP  RH WIND       PRES   REMARKS
BRADFORD       CLEAR     63  49  60 SE7       29.68S
DUBOIS         CLEAR     65  47  52 SE10G18   29.66F
CLEARFIELD       N/A    N/A N/A N/A MISG      29.70S
JOHNSTOWN      PTCLDY    62  49  62 S17G24    29.70S
ALTOONA        PTCLDY    65  50  58 S14G23    29.72F
STATE COLLEGE  CLEAR     64  50  59 S12G25    29.73S
WILLIAMSPORT   CLOUDY    66  52  60 S25G31    29.71F
SELINSGROVE    CLOUDY    64  53  67 S12       29.75S
FT INDIANTOWN  CLOUDY    63  56  79 VRB7      29.79F
CAPITAL CITY   CLEAR     66  53  63 SE12      29.77F
HARRISBURG     PTCLDY    61  54  77 SE9       29.77S
YORK           PTCLDY    63  56  78 S9G17     29.79S
$$

PAZ038>040-043-044-047-048-054-055-060>062-067>071-250300-
EASTERN PENNSYLVANIA

CITY           SKY/WX    TMP DP  RH WIND       PRES   REMARKS
SCRANTON       CLOUDY    64  51  62 S9        29.78S
MOUNT POCONO   PTCLDY    57  52  83 S10       29.83S
ALLENTOWN      CLEAR     64  54  69 S9        29.82R
QUAKERTOWN*    CLEAR     63  55  77 S7        29.84S
READING        CLEAR     63  54  72 SE8       29.81R
LANCASTER      CLEAR     63  55  75 S7        29.81S
COATESVILLE    CLEAR     59  54  82 SE5       29.85R
POTTSTOWN      CLEAR     60  54  80 CALM      29.85R
BLUE BELL      PTCLDY    61  55  82 S7        29.83S
DOYLESTOWN     CLOUDY    63  57  81 S8        29.84R
WILLOW GROVE   NOT AVBL
NORTH PHILA    MOCLDY    64  59  83 S7        29.86S
PHILADELPHIA   PTCLDY    62  57  83 S15       29.84F
$$




USA.gov is the U.S. government's official web portal to all federal, state and local government web resources and services.